CES8667 ZSAM-ZGSZ

Flight info

Callsign CES8667
Flight time 0h 52m
Altitude 30100
Route NUSPA9Z NUSPA W597 IKATA A470 BEBEM R200 GUBLO
Aircraft B77W/H-SDE1E2E3FGHIJ2J3J4J5M1RWXY/LB1D1

Departure

Time 2026-05-06 18:57
Airport Xiamen Gaoqi International Airport (ZSAM)

Arrival

Time 2026-05-06 19:50
Airport Shenzhen Bao'an International Airport (ZGSZ)
Time Latitude Longitude Altitude Speed Heading
2026-05-06 18:30 24.54754 118.13946 52 ft 0 kts 53°
2026-05-06 18:46 24.54748 118.13937 46 ft 4 kts 50°
2026-05-06 18:47 24.54730 118.13917 49 ft 4 kts 34°
2026-05-06 18:47 24.54708 118.13904 48 ft 4 kts 13°
2026-05-06 18:47 24.54685 118.13903 51 ft 4 kts 344°
2026-05-06 18:47 24.54669 118.13911 48 ft 1 kts 321°
2026-05-06 18:48 24.54668 118.13911 48 ft 3 kts 321°
2026-05-06 18:49 24.54670 118.13909 49 ft 2 kts 321°
2026-05-06 18:50 24.54695 118.13888 46 ft 7 kts 321°
2026-05-06 18:50 24.54746 118.13844 50 ft 9 kts 322°
2026-05-06 18:50 24.54798 118.13800 49 ft 12 kts 322°
2026-05-06 18:50 24.54855 118.13741 49 ft 11 kts 287°
2026-05-06 18:51 24.54834 118.13650 48 ft 14 kts 240°
2026-05-06 18:51 24.54772 118.13557 48 ft 9 kts 232°
2026-05-06 18:51 24.54723 118.13488 49 ft 14 kts 232°
2026-05-06 18:51 24.54657 118.13396 49 ft 17 kts 231°
2026-05-06 18:52 24.54578 118.13287 48 ft 16 kts 232°
2026-05-06 18:52 24.54501 118.13178 49 ft 20 kts 232°
2026-05-06 18:52 24.54427 118.13074 49 ft 18 kts 232°
2026-05-06 18:52 24.54342 118.12955 55 ft 21 kts 231°
2026-05-06 18:53 24.54253 118.12832 51 ft 22 kts 232°
2026-05-06 18:53 24.54173 118.12719 53 ft 12 kts 232°
2026-05-06 18:53 24.54114 118.12638 53 ft 15 kts 232°
2026-05-06 18:53 24.54040 118.12534 53 ft 19 kts 232°
2026-05-06 18:54 24.53958 118.12418 54 ft 19 kts 232°
2026-05-06 18:54 24.53870 118.12295 58 ft 22 kts 231°
2026-05-06 18:54 24.53782 118.12173 58 ft 21 kts 231°
2026-05-06 18:54 24.53699 118.12057 57 ft 20 kts 232°
2026-05-06 18:55 24.53628 118.11957 57 ft 15 kts 231°
2026-05-06 18:55 24.53554 118.11855 58 ft 19 kts 231°
2026-05-06 18:55 24.53480 118.11747 59 ft 14 kts 239°
2026-05-06 18:55 24.53505 118.11640 64 ft 17 kts 313°
2026-05-06 18:56 24.53616 118.11658 61 ft 20 kts 47°
2026-05-06 18:56 24.53644 118.11695 60 ft 1 kts 51°
2026-05-06 18:56 24.53654 118.11708 58 ft 3 kts 51°
2026-05-06 18:56 24.53674 118.11735 57 ft 6 kts 51°
2026-05-06 18:57 24.53768 118.11862 55 ft 57 kts 51°
2026-05-06 18:57 24.54193 118.12462 55 ft 138 kts 52°
2026-05-06 18:57 24.54912 118.13484 123 ft 192 kts 53°
2026-05-06 18:57 24.55707 118.14665 858 ft 195 kts 55°
2026-05-06 18:58 24.56502 118.15838 1833 ft 188 kts 50°
2026-05-06 18:58 24.57366 118.16990 2587 ft 201 kts 50°
2026-05-06 18:58 24.58272 118.18215 3336 ft 211 kts 51°
2026-05-06 18:58 24.59203 118.19499 4131 ft 219 kts 52°
2026-05-06 18:59 24.60154 118.20820 4950 ft 225 kts 52°
2026-05-06 18:59 24.61131 118.22184 5787 ft 229 kts 52°
2026-05-06 18:59 24.61976 118.23599 6514 ft 233 kts 70°
2026-05-06 18:59 24.62254 118.25342 7255 ft 234 kts 97°
2026-05-06 19:00 24.61808 118.27041 7989 ft 234 kts 124°
2026-05-06 19:00 24.60734 118.28353 8730 ft 233 kts 150°
2026-05-06 19:00 24.59269 118.29020 9457 ft 232 kts 175°
2026-05-06 19:00 24.58251 118.29057 9923 ft 230 kts 192°
2026-05-06 19:01 24.56720 118.28456 10625 ft 228 kts 218°
2026-05-06 19:01 24.55569 118.27277 11333 ft 228 kts 232°
2026-05-06 19:01 24.54575 118.25913 12045 ft 231 kts 234°
2026-05-06 19:01 24.53583 118.24507 12781 ft 235 kts 234°
2026-05-06 19:02 24.52574 118.23079 13514 ft 240 kts 234°
2026-05-06 19:02 24.51537 118.21620 14211 ft 244 kts 234°
2026-05-06 19:02 24.50489 118.20138 14865 ft 250 kts 234°
2026-05-06 19:02 24.49377 118.18562 15207 ft 275 kts 234°
2026-05-06 19:03 24.48147 118.16818 15392 ft 304 kts 234°
2026-05-06 19:03 24.46793 118.14903 15616 ft 332 kts 234°
2026-05-06 19:03 24.45917 118.13665 15734 ft 349 kts 234°
2026-05-06 19:03 24.44388 118.11509 15908 ft 374 kts 233°
2026-05-06 19:04 24.42734 118.09181 16256 ft 392 kts 233°
2026-05-06 19:04 24.41034 118.06792 16891 ft 401 kts 233°
2026-05-06 19:04 24.39325 118.04390 17639 ft 405 kts 233°
2026-05-06 19:04 24.37578 118.01934 18418 ft 409 kts 234°
2026-05-06 19:05 24.35821 117.99465 19116 ft 412 kts 234°
2026-05-06 19:05 24.34056 117.96986 19838 ft 415 kts 234°
2026-05-06 19:05 24.32277 117.94490 20511 ft 419 kts 234°
2026-05-06 19:05 24.30476 117.91964 21193 ft 422 kts 234°
2026-05-06 19:06 24.28664 117.89424 21863 ft 426 kts 234°
2026-05-06 19:06 24.26837 117.86861 22522 ft 430 kts 234°
2026-05-06 19:06 24.24996 117.84286 23173 ft 433 kts 233°
2026-05-06 19:06 24.23004 117.81796 23768 ft 438 kts 228°
2026-05-06 19:07 24.20824 117.79448 24271 ft 443 kts 226°
2026-05-06 19:07 24.19325 117.77906 24600 ft 446 kts 225°
2026-05-06 19:07 24.16290 117.74795 25234 ft 452 kts 226°
2026-05-06 19:07 24.14009 117.72412 25703 ft 456 kts 226°
2026-05-06 19:08 24.11726 117.69988 26156 ft 460 kts 226°
2026-05-06 19:08 24.09432 117.67529 26626 ft 464 kts 226°
2026-05-06 19:08 24.07125 117.65055 27148 ft 467 kts 226°
2026-05-06 19:08 24.04806 117.62573 27692 ft 469 kts 226°
2026-05-06 19:09 24.02474 117.60074 28208 ft 472 kts 226°
2026-05-06 19:09 24.00136 117.57567 28781 ft 472 kts 226°
2026-05-06 19:09 23.97883 117.55154 29440 ft 471 kts 226°
2026-05-06 19:09 23.95543 117.52646 30064 ft 472 kts 226°
2026-05-06 19:10 23.93191 117.50125 30068 ft 476 kts 226°
2026-05-06 19:10 23.88911 117.45543 30072 ft 471 kts 226°
2026-05-06 19:11 23.84747 117.40099 30078 ft 468 kts 240°
2026-05-06 19:11 23.82063 117.33678 30082 ft 466 kts 254°
2026-05-06 19:12 23.80249 117.26893 30084 ft 467 kts 255°
2026-05-06 19:12 23.78372 117.20154 30078 ft 467 kts 254°
2026-05-06 19:13 23.75762 117.13687 30073 ft 470 kts 240°
2026-05-06 19:13 23.71792 117.08046 30076 ft 473 kts 229°
2026-05-06 19:14 23.67207 117.02924 30075 ft 473 kts 227°
2026-05-06 19:14 23.62620 116.97807 30073 ft 472 kts 228°
2026-05-06 19:15 23.58073 116.92662 30072 ft 472 kts 228°
2026-05-06 19:15 23.53534 116.87505 30071 ft 472 kts 229°
2026-05-06 19:16 23.49138 116.82518 30068 ft 473 kts 229°
2026-05-06 19:16 23.45299 116.78175 30069 ft 474 kts 228°
2026-05-06 19:17 23.40296 116.73494 30077 ft 477 kts 220°
2026-05-06 19:17 23.34998 116.69162 30068 ft 478 kts 219°
2026-05-06 19:18 23.29704 116.64817 30065 ft 478 kts 220°
2026-05-06 19:18 23.24423 116.60445 30068 ft 478 kts 220°
2026-05-06 19:19 23.19141 116.56064 30067 ft 478 kts 220°
2026-05-06 19:19 23.14044 116.51839 30064 ft 478 kts 220°
2026-05-06 19:20 23.08763 116.47469 30062 ft 478 kts 220°
2026-05-06 19:20 23.03487 116.43107 30064 ft 478 kts 220°
2026-05-06 19:21 22.98252 116.38698 30053 ft 474 kts 226°
2026-05-06 19:21 22.96184 116.35964 30066 ft 468 kts 242°
2026-05-06 19:21 22.94804 116.32795 30072 ft 464 kts 254°
2026-05-06 19:21 22.94138 116.29410 30058 ft 458 kts 266°
2026-05-06 19:22 22.94093 116.28915 30065 ft 458 kts 266°
2026-05-06 19:22 22.93587 116.22911 30067 ft 461 kts 266°
2026-05-06 19:23 22.92983 116.16499 30072 ft 462 kts 265°
2026-05-06 19:23 22.92280 116.09683 29850 ft 450 kts 265°
2026-05-06 19:23 22.91930 116.06332 29585 ft 446 kts 265°
2026-05-06 19:24 22.91582 116.03000 29240 ft 444 kts 265°
2026-05-06 19:24 22.91242 115.99686 28894 ft 443 kts 265°
2026-05-06 19:24 22.90914 115.96385 28577 ft 440 kts 265°
2026-05-06 19:24 22.90590 115.93099 28284 ft 438 kts 265°
2026-05-06 19:25 22.90264 115.89833 28000 ft 435 kts 265°
2026-05-06 19:25 22.89938 115.86589 27714 ft 432 kts 265°
2026-05-06 19:25 22.89654 115.83765 27463 ft 431 kts 265°
2026-05-06 19:25 22.89340 115.80638 27185 ft 429 kts 265°
2026-05-06 19:26 22.89017 115.77440 26906 ft 426 kts 265°
2026-05-06 19:26 22.88706 115.74349 26645 ft 424 kts 265°
2026-05-06 19:26 22.88396 115.71284 26394 ft 422 kts 265°
2026-05-06 19:26 22.88087 115.68231 26136 ft 421 kts 264°
2026-05-06 19:27 22.87842 115.65818 25933 ft 419 kts 264°
2026-05-06 19:27 22.87524 115.62686 25668 ft 417 kts 264°
2026-05-06 19:27 22.87207 115.59577 25442 ft 415 kts 264°
2026-05-06 19:27 22.86892 115.56484 25218 ft 412 kts 264°
2026-05-06 19:28 22.86577 115.53407 24898 ft 411 kts 264°
2026-05-06 19:28 22.86306 115.50755 24634 ft 411 kts 264°
2026-05-06 19:28 22.86098 115.48725 24448 ft 410 kts 264°
2026-05-06 19:28 22.85784 115.45666 24194 ft 408 kts 264°
2026-05-06 19:29 22.85471 115.42625 23950 ft 406 kts 264°
2026-05-06 19:29 22.85160 115.39604 23710 ft 404 kts 264°
2026-05-06 19:29 22.84848 115.36592 23440 ft 402 kts 264°
2026-05-06 19:29 22.84537 115.33587 23137 ft 401 kts 264°
2026-05-06 19:30 22.84227 115.30596 22846 ft 400 kts 264°
2026-05-06 19:30 22.83918 115.27616 22566 ft 398 kts 264°
2026-05-06 19:30 22.83609 115.24647 22299 ft 396 kts 263°
2026-05-06 19:30 22.83301 115.21690 22021 ft 395 kts 263°
2026-05-06 19:31 22.82993 115.18746 21763 ft 393 kts 263°
2026-05-06 19:31 22.82686 115.15808 21505 ft 392 kts 263°
2026-05-06 19:31 22.82091 115.10134 21020 ft 389 kts 263°
2026-05-06 19:32 22.81786 115.07232 20796 ft 388 kts 263°
2026-05-06 19:32 22.81481 115.04338 20549 ft 387 kts 263°
2026-05-06 19:32 22.81176 115.01446 20316 ft 386 kts 263°
2026-05-06 19:32 22.80872 114.98572 20103 ft 384 kts 263°
2026-05-06 19:33 22.80570 114.95721 19756 ft 383 kts 263°
2026-05-06 19:33 22.80266 114.92850 19286 ft 382 kts 263°
2026-05-06 19:33 22.80025 114.90590 18896 ft 381 kts 263°
2026-05-06 19:33 22.79724 114.87756 18397 ft 380 kts 263°
2026-05-06 19:34 22.79425 114.84945 17856 ft 379 kts 263°
2026-05-06 19:34 22.79124 114.82129 17324 ft 376 kts 263°
2026-05-06 19:34 22.78824 114.79323 16827 ft 374 kts 263°
2026-05-06 19:34 22.78526 114.76542 16317 ft 371 kts 262°
2026-05-06 19:35 22.77959 114.73839 15823 ft 366 kts 247°
2026-05-06 19:35 22.76854 114.71402 15352 ft 360 kts 243°
2026-05-06 19:35 22.75909 114.69396 14976 ft 358 kts 244°
2026-05-06 19:35 22.74796 114.66992 14505 ft 357 kts 244°
2026-05-06 19:36 22.73701 114.64594 14019 ft 356 kts 244°
2026-05-06 19:36 22.72614 114.62190 13522 ft 355 kts 244°
2026-05-06 19:36 22.71537 114.59798 13009 ft 353 kts 244°
2026-05-06 19:36 22.70467 114.57417 12546 ft 351 kts 244°
2026-05-06 19:37 22.69409 114.55064 12080 ft 348 kts 244°
2026-05-06 19:37 22.68351 114.52711 11618 ft 346 kts 244°
2026-05-06 19:37 22.67302 114.50383 11159 ft 344 kts 244°
2026-05-06 19:37 22.66608 114.48840 10872 ft 343 kts 244°
2026-05-06 19:38 22.65244 114.45817 10644 ft 329 kts 244°
2026-05-06 19:38 22.64258 114.43630 10496 ft 319 kts 244°
2026-05-06 19:38 22.63500 114.41462 10331 ft 303 kts 259°
2026-05-06 19:38 22.63228 114.39250 10232 ft 290 kts 262°
2026-05-06 19:39 22.62979 114.37165 10322 ft 272 kts 262°
2026-05-06 19:39 22.62710 114.35090 10241 ft 279 kts 261°
2026-05-06 19:39 22.61738 114.27895 9180 ft 272 kts 261°
2026-05-06 19:39 22.60658 114.19990 7772 ft 265 kts 260°
2026-05-06 19:40 22.59741 114.13288 6914 ft 246 kts 260°
2026-05-06 19:40 22.59498 114.11517 6893 ft 232 kts 260°
2026-05-06 19:40 22.59226 114.10051 6618 ft 228 kts 249°
2026-05-06 19:40 22.58565 114.08526 6368 ft 223 kts 240°
2026-05-06 19:41 22.57843 114.07095 6073 ft 223 kts 240°
2026-05-06 19:41 22.57100 114.05620 5793 ft 221 kts 240°
2026-05-06 19:41 22.56375 114.04158 5510 ft 219 kts 241°
2026-05-06 19:41 22.55666 114.02710 5242 ft 217 kts 241°
2026-05-06 19:42 22.54968 114.01274 4977 ft 216 kts 241°
2026-05-06 19:42 22.54273 113.99841 4704 ft 216 kts 241°
2026-05-06 19:42 22.53575 113.98401 4437 ft 218 kts 240°
2026-05-06 19:42 22.52888 113.96935 4161 ft 221 kts 242°
2026-05-06 19:43 22.52223 113.95437 3885 ft 222 kts 243°
2026-05-06 19:43 22.51535 113.93940 3599 ft 222 kts 240°
2026-05-06 19:43 22.50816 113.92456 3218 ft 225 kts 240°
2026-05-06 19:43 22.50222 113.90914 2822 ft 219 kts 259°
2026-05-06 19:44 22.50457 113.89407 2630 ft 198 kts 298°
2026-05-06 19:44 22.51334 113.88408 2455 ft 172 kts 321°
2026-05-06 19:44 22.52273 113.87691 2231 ft 163 kts 327°
2026-05-06 19:44 22.53217 113.87017 2038 ft 163 kts 328°
2026-05-06 19:45 22.54207 113.86409 1832 ft 164 kts 333°
2026-05-06 19:45 22.55212 113.85849 1619 ft 162 kts 334°
2026-05-06 19:45 22.56058 113.85384 1431 ft 161 kts 334°
2026-05-06 19:47 22.56149 113.85334 1411 ft 161 kts 334°
2026-05-06 19:47 22.57143 113.84788 1211 ft 159 kts 334°
2026-05-06 19:48 22.58115 113.84254 1005 ft 156 kts 334°
2026-05-06 19:48 22.59071 113.83728 800 ft 153 kts 334°
2026-05-06 19:48 22.60002 113.83217 611 ft 149 kts 334°
2026-05-06 19:48 22.60917 113.82714 405 ft 148 kts 333°
2026-05-06 19:49 22.61829 113.82205 217 ft 148 kts 333°
2026-05-06 19:49 22.62750 113.81705 58 ft 148 kts 334°
2026-05-06 19:49 22.63638 113.81223 19 ft 129 kts 333°
2026-05-06 19:49 22.64275 113.80874 19 ft 76 kts 333°
2026-05-06 19:50 22.64642 113.80673 20 ft 50 kts 332°
2026-05-06 19:50 22.64830 113.80570 21 ft 29 kts 333°
2026-05-06 19:50 22.65008 113.80472 24 ft 28 kts 333°
2026-05-06 19:50 22.65097 113.80423 20 ft 16 kts 333°
2026-05-06 19:51 22.65157 113.80330 20 ft 17 kts 261°
2026-05-06 19:51 22.65118 113.80229 20 ft 10 kts 214°
2026-05-06 19:51 22.65040 113.80236 23 ft 13 kts 160°
2026-05-06 19:51 22.64951 113.80280 23 ft 16 kts 152°
2026-05-06 19:52 22.64849 113.80343 27 ft 18 kts 151°
2026-05-06 19:52 22.64726 113.80410 23 ft 22 kts 153°
2026-05-06 19:52 22.64574 113.80491 21 ft 26 kts 153°
2026-05-06 19:52 22.64421 113.80575 17 ft 24 kts 153°
2026-05-06 19:53 22.64263 113.80663 16 ft 27 kts 153°
2026-05-06 19:53 22.64113 113.80746 16 ft 17 kts 153°
2026-05-06 19:53 22.64025 113.80712 16 ft 16 kts 246°
2026-05-06 19:53 22.63976 113.80591 15 ft 20 kts 245°
2026-05-06 19:54 22.63911 113.80458 17 ft 13 kts 243°
2026-05-06 19:54 22.63834 113.80429 17 ft 14 kts 169°
2026-05-06 19:54 22.63743 113.80469 18 ft 8 kts 154°
2026-05-06 19:54 22.63724 113.80479 18 ft 0 kts 154°
2026-05-06 19:55 22.63723 113.80479 18 ft 1 kts 154°
2026-05-06 19:55 22.63703 113.80489 19 ft 5 kts 154°
2026-05-06 19:55 22.63674 113.80492 19 ft 5 kts 184°
2026-05-06 19:56 22.63660 113.80480 18 ft 3 kts 227°
2026-05-06 19:56 22.63654 113.80472 18 ft 0 kts 231°